Weather History for Lytton, BC

Change the Weather History Date:

Sunday, August 10, 2014

  Actual Average Record
Temperature  
Mean Temperature 79 °F -  
Max Temperature 98 °F 85 °F 98 °F (1996)
Min Temperature 60 °F 59 °F 51 °F (1997)
Cooling Degree Days 14    
Growing Degree Days 29 (Base 50)    
Moisture  
Dew Point 47 °F    
Average Humidity 38    
Maximum Humidity 77    
Minimum Humidity 13    
Precipitation  
Precipitation 0.00 in - - ()
Sea Level Pressure  
Sea Level Pressure 30.08 in    
Wind  
Wind Speed 6 mph ()    
Max Wind Speed 17 mph    
Max Gust Speed 25 mph    
Visibility 9.0 miles    
Events      
Averages and records for this station are not official NWS values.
T = Trace of Precipitation, MM = Missing Value Source: Averaged Metar Reports

Daily Weather History Graph

Daily Weather History Graph

Search for Another Location

Airport:

Trip Planner

Search our weather history database for the weather conditions in past years. The results will help you decide how hot, cold, wet, or windy it might be!

Date:

Astronomy

Aug. 10, 2014 Rise Set
Actual Time 5:48 AM PDT 8:34 PM PDT
Civil Twilight 5:11 AM PDT 9:11 PM PDT
Nautical Twilight 4:23 AM PDT 9:58 PM PDT
Astronomical Twilight 3:25 AM PDT 10:55 PM PDT
Moon 8:14 PM PDT (8/10) 5:52 AM PDT (8/10)
Length of Visible Light 16h 00m
Length of Day
14h 45m
Full, 100% of the Moon is Illuminated
Aug 10
Full
Aug 17
Last Quarter
Aug 25
New
Sep 2
First Quarter
Sep 8
Full

Hourly Weather History & Observations

Time (PDT) Temp. Dew Point Humidity Pressure Visibility Wind Dir Wind Speed Gust Speed Precip Events Conditions
12:00 AM 75.2 °F 51.8 °F 44% 30.05 in 9.0 mi South 17.3 mph 25.3 mph N/A   Clear
1:00 AM 73.4 °F 53.6 °F 50% 30.08 in 9.0 mi South 11.5 mph 20.7 mph N/A   Clear
2:00 AM 71.6 °F 53.6 °F 53% 30.10 in 9.0 mi South 11.5 mph 19.6 mph N/A   Clear
3:00 AM 69.8 °F 51.8 °F 53% 30.12 in 9.0 mi SSE 4.6 mph - N/A   Clear
4:00 AM 68.0 °F 53.6 °F 60% 30.14 in 9.0 mi South 4.6 mph - N/A   Clear
5:00 AM 64.4 °F 53.6 °F 68% 30.15 in 9.0 mi South 4.6 mph - N/A   Clear
6:00 AM 62.6 °F 53.6 °F 72% 30.17 in 9.0 mi South 2.3 mph - N/A   Clear
7:00 AM 60.8 °F 53.6 °F 77% 30.19 in 9.0 mi Calm Calm - N/A   Clear
8:00 AM 62.6 °F 53.6 °F 72% 30.20 in 9.0 mi South 3.5 mph - N/A   Clear
9:00 AM 69.8 °F 53.6 °F 56% 30.19 in 9.0 mi Variable 3.5 mph - N/A   Clear
11:00 AM 84.2 °F 46.4 °F 27% 30.15 in 9.0 mi NNE 12.7 mph - N/A   Clear
12:00 PM 87.8 °F 42.8 °F 21% 30.12 in 9.0 mi North 9.2 mph - N/A   Clear
1:00 PM 93.2 °F 41.0 °F 16% 30.09 in 9.0 mi North 10.4 mph - N/A   Clear
2:00 PM 95.0 °F 39.2 °F 14% 30.06 in 9.0 mi WNW 4.6 mph - N/A   Clear
3:00 PM 96.8 °F 39.2 °F 14% 30.04 in 9.0 mi NNW 4.6 mph - N/A   Clear
5:00 PM 98.6 °F 41.0 °F 14% 29.99 in 9.0 mi Variable 2.3 mph - N/A   Clear
6:00 PM 98.6 °F 39.2 °F 13% 29.96 in 9.0 mi Variable 2.3 mph - N/A   Clear
7:00 PM 91.4 °F 39.2 °F 16% 29.96 in 9.0 mi Calm Calm - N/A   Clear
8:00 PM 87.8 °F 37.4 °F 17% 29.97 in 9.0 mi South 3.5 mph - N/A   Clear
9:00 PM 80.6 °F 42.8 °F 26% 29.98 in 9.0 mi Calm Calm - N/A   Clear
10:00 PM 77.0 °F 42.8 °F 29% 30.00 in 9.0 mi South 4.6 mph - N/A   Clear
11:00 PM 73.4 °F 42.8 °F 33% 30.01 in 9.0 mi SSE 5.8 mph - N/A   Clear